MB7UBS Weather Reports


Display with metric or nautical units.
time (UTC)temp
F
wind
direction
speed
MPH
gust
MPH
rain 1hr
in
rain 24hr
in
rain mn
in
humidity
%
barometer
mb
20260901222733 210 100 0.0 0.0 0.00 0.00 0.00 1019.4
20260901220733 210 100 0.0 0.0 0.00 0.00 0.00 1019.3
20260901215733 210 100 0.0 0.0 0.00 0.00 0.00 1019.4
20260901214733 210 100 0.0 0.0 0.00 0.00 0.00 1019.4
20260901213732 210 100 0.0 0.0 0.00 0.00 0.00 1019.5
20260901212732 210 100 0.0 0.0 0.00 0.00 0.00 1019.4
20260901211732 210 100 0.0 0.0 0.00 0.00 0.00 1019.5
20260901205732 210 100 0.0 3.0 0.00 0.00 0.00 1019.5
20260901204732 210 20 0.0 1.0 0.00 0.00 0.00 1019.5
20260901203732 210 76 0.0 3.0 0.00 0.00 0.00 1019.5
20260901202731 210 28 2.0 2.0 0.00 0.00 0.00 1019.4
20260901201731 210 77 1.0 2.0 0.00 0.00 0.00 1019.3
20260901200732 210 108 0.0 3.0 0.00 0.00 0.00 1019.4
20260901194731 210 83 1.0 4.0 0.00 0.00 0.00 1019.4
20260901192731 210 110 0.0 4.0 0.00 0.00 0.00 1019.2
20260901191731 210 49 0.0 4.0 0.00 0.00 0.00 1019.1
20260901190731 210 75 0.0 5.0 0.00 0.00 0.00 1018.9
20260901185731 210 132 1.0 4.0 0.00 0.00 0.00 1018.9
20260901184730 210 96 0.0 4.0 0.00 0.00 0.00 1018.9
20260901183730 210 97 1.0 5.0 0.00 0.00 0.00 1019.0
20260901180729 210 79 0.0 6.0 0.00 0.00 0.00 1019.0
20260901175729 210 75 3.0 8.0 0.00 0.00 0.00 1019.0
20260901173729 210 105 2.0 6.0 0.00 0.00 0.00 1019.1
20260901172729 210 91 3.0 6.0 0.00 0.00 0.00 1019.1
20260901171729 210 68 1.0 7.0 0.00 0.00 0.00 1019.0
20260901170729 210 113 4.0 7.0 0.00 0.00 0.00 1019.0
20260901165729 210 98 0.0 7.0 0.00 0.00 0.00 1019.0
20260901164729 210 80 0.0 6.0 0.00 0.00 0.00 1019.0
20260901163729 210 68 4.0 7.0 0.00 0.00 0.00 1019.1
20260901161728 210 97 2.0 9.0 0.00 0.00 0.00 1019.1
20260901160728 210 82 3.0 8.0 0.00 0.00 0.00 1019.1
20260901155728 210 80 2.0 7.0 0.00 0.00 0.00 1019.2
20260901154728 210 105 5.0 7.0 0.00 0.00 0.00 1019.3
20260901153727 210 46 3.0 9.0 0.00 0.00 0.00 1019.2
20260901152727 210 30 1.0 7.0 0.00 0.00 0.00 1019.1
20260901151727 210 122 4.0 8.0 0.00 0.00 0.00 1019.2
20260901145727 210 90 4.0 7.0 0.00 0.00 0.00 1019.4
20260901144727 210 86 1.0 6.0 0.00 0.00 0.00 1019.5
20260901143726 210 176 3.0 8.0 0.00 0.00 0.00 1019.5
20260901142727 210 82 1.0 7.0 0.00 0.00 0.00 1019.5
20260901140726 210 108 6.0 8.0 0.00 0.00 0.00 1019.6
20260901135726 210 105 3.0 9.0 0.00 0.00 0.00 1019.7
20260901134726 210 79 3.0 9.0 0.00 0.00 0.00 1019.8
20260901133726 210 65 2.0 8.0 0.00 0.00 0.00 1019.8
20260901132726 210 15 2.0 8.0 0.00 0.00 0.00 1019.7
20260901131725 210 120 3.0 7.0 0.00 0.00 0.00 1019.8
20260901125725 210 51 6.0 7.0 0.00 0.00 0.00 1019.8
20260901124725 210 145 5.0 9.0 0.00 0.00 0.00 1019.9
20260901123725 210 108 0.0 7.0 0.00 0.00 0.00 1019.8
20260901122724 210 129 4.0 8.0 0.00 0.00 0.00 1019.8
20260901121725 210 260 2.0 8.0 0.00 0.00 0.00 1019.8
20260901120724 210 107 1.0 5.0 0.00 0.00 0.00 1020.0
20260901115724 210 56 1.0 7.0 0.00 0.00 0.00 1020.0
20260901114724 210 62 3.0 8.0 0.00 0.00 0.00 1020.1
20260901112724 210 138 1.0 5.0 0.00 0.00 0.00 1020.1
20260901111724 210 105 1.0 6.0 0.00 0.00 0.00 1020.2
20260901110724 210 18 4.0 7.0 0.00 0.00 0.00 1020.3
20260901103723 210 35 2.0 6.0 0.00 0.00 0.00 1020.5
20260901102723 210 94 1.0 6.0 0.00 0.00 0.00 1020.4
20260901101723 210 80 3.0 6.0 0.00 0.00 0.00 1020.5
20260901100723 210 104 0.0 6.0 0.00 0.00 0.00 1020.6
20260901095723 210 56 1.0 5.0 0.00 0.00 0.00 1020.7
20260901094723 210 59 2.0 6.0 0.00 0.00 0.00 1020.6
20260901092722 210 27 0.0 0.0 0.00 0.00 0.00 1020.7
20260901091722 210 27 0.0 0.0 0.00 0.00 0.00 1020.8
20260901085722 210 27 0.0 0.0 0.00 0.00 0.00 1020.8
20260901084722 210 27 0.0 0.0 0.00 0.00 0.00 1020.9
20260901082721 210 27 0.0 0.0 0.00 0.00 0.00 1020.8
20260901081721 210 27 0.0 0.0 0.00 0.00 0.00 1020.9
20260901080721 210 27 0.0 0.0 0.00 0.00 0.00 1020.8
20260901075721 210 27 0.0 0.0 0.00 0.00 0.00 1020.7
20260901074721 210 27 0.0 0.0 0.00 0.00 0.00 1020.7
20260901072720 210 27 0.0 0.0 0.00 0.00 0.00 1020.6
20260901071720 210 27 0.0 0.0 0.00 0.00 0.00 1020.4
20260901070720 210 27 0.0 0.0 0.00 0.00 0.00 1020.3
20260901065720 210 27 0.0 0.0 0.00 0.00 0.00 1020.2
20260901064720 210 27 0.0 0.0 0.00 0.00 0.00 1020.2
20260901063719 210 27 0.0 0.0 0.00 0.00 0.00 1020.1
20260901062720 210 27 0.0 0.0 0.00 0.00 0.00 1020.0
20260901055719 210 27 0.0 0.0 0.00 0.00 0.00 1019.9
20260901054719 210 27 0.0 0.0 0.00 0.00 0.00 1019.8
20260901045718 210 27 0.0 0.0 0.00 0.00 0.00 1019.4
20260901044718 210 27 0.0 0.0 0.00 0.00 0.00 1019.3
20260901043718 210 27 0.0 0.0 0.00 0.00 0.00 1019.3
20260901041717 210 27 0.0 0.0 0.00 0.00 0.00 1019.3
20260901040718 210 27 0.0 0.0 0.00 0.00 0.00 1019.2
20260901034717 210 27 0.0 0.0 0.00 0.00 0.00 1019.2
20260901033717 210 27 0.0 0.0 0.00 0.00 0.00 1019.2
20260901032717 210 27 0.0 0.0 0.00 0.00 0.00 1019.2
20260901031717 210 27 0.0 0.0 0.00 0.00 0.00 1019.2
20260901030717 210 27 0.0 0.0 0.00 0.00 0.00 1019.2
20260901025717 210 27 0.0 0.0 0.00 0.00 0.00 1019.2
20260901024717 210 27 0.0 0.0 0.00 0.00 0.00 1019.2
20260901023716 210 27 0.0 0.0 0.00 0.00 0.00 1019.2
20260901022717 210 27 0.0 0.0 0.00 0.00 0.00 1019.3
20260901021716 210 27 0.0 0.0 0.00 0.00 0.00 1019.3
20260901020716 210 27 0.0 0.0 0.00 0.00 0.00 1019.3
20260901015716 210 27 0.0 0.0 0.00 0.00 0.00 1019.3
20260901014716 210 27 0.0 0.0 0.00 0.00 0.00 1019.3
20260901012716 210 27 0.0 0.0 0.00 0.00 0.00 1019.1
20260901011715 210 27 0.0 0.0 0.00 0.00 0.00 1019.1
20260901010716 210 27 0.0 0.0 0.00 0.00 0.00 1019.0
20260901005715 210 27 0.0 0.0 0.00 0.00 0.00 1019.0
20260901002715 210 27 0.0 0.0 0.00 0.00 0.00 1018.9
20260901001714 210 27 0.0 0.0 0.00 0.00 0.00 1018.9
20260901000714 210 27 0.0 0.0 0.00 0.00 0.00 1018.9
20260831235714 210 27 0.0 0.0 0.00 0.00 0.00 1018.9
20260831234714 210 27 0.0 0.0 0.00 0.00 0.00 1019.0
20260831233714 210 27 0.0 0.0 0.00 0.00 0.00 1019.0
20260831232714 210 27 0.0 0.0 0.00 0.00 0.00 1019.0
20260831231714 210 27 0.0 0.0 0.00 0.00 0.00 1018.9
20260831230714 210 27 0.0 0.0 0.00 0.00 0.00 1018.9
20260831224714 210 27 0.0 0.0 0.00 0.00 0.00 1019.0
20260831223713 210 27 0.0 0.0 0.00 0.00 0.00 1019.1